Private Wetterstation Wechselburg
Wetterdaten: Sonntag, 22.03.2020
Datum Zeit Temp. +2m Bodentemp. Temp.+5cm Temp. Wind Windchill X Diff Temp. Feuchte +2m Feuchte +5cm Luftdruck Regen Wind Richtung Richtung Sonnenschein Taupunkt Windchill Windben
22.03.2020 00:00 -2,1 C 6,9 C -3,0 C -2,6 C -3,7 C 0,0 C 79 % 83 % 1032,9 hPa 0,0 l/m 0,0 km/h (0 Bft) O-NO 67 0 min -5,2 C -3,7 C 0,0 km/h (0 Bft)
22.03.2020 00:05 -2,1 C 6,9 C -3,1 C -2,7 C -3,8 C 0,0 C 79 % 83 % 1032,9 hPa 0,0 l/m 0,0 km/h (0 Bft) NO 45 0 min -5,2 C -3,8 C 0,0 km/h (0 Bft)
22.03.2020 00:11 -2,3 C 6,9 C -3,1 C -2,8 C -3,9 C 0,0 C 80 % 83 % 1032,9 hPa 0,0 l/m 0,0 km/h (0 Bft) N 0 0 min -5,3 C -3,9 C 0,0 km/h (0 Bft)
22.03.2020 00:25 -2,5 C 6,8 C -3,3 C -3,1 C -4,3 C 0,0 C 80 % 84 % 1033,3 hPa 0,0 l/m 0,0 km/h (0 Bft) O-NO 67 0 min -5,5 C -4,3 C 0,0 km/h (0 Bft)
22.03.2020 00:26 -2,5 C 6,8 C -3,3 C -3,1 C -4,3 C 0,0 C 80 % 84 % 1033,3 hPa 0,0 l/m 0,0 km/h (0 Bft) O-NO 67 0 min -5,5 C -4,3 C 0,0 km/h (0 Bft)
22.03.2020 00:40 -2,5 C 6,8 C -3,4 C -3,2 C -4,7 C 0,0 C 80 % 84 % 1033,4 hPa 0,0 l/m 0,0 km/h (0 Bft) NO 45 0 min -5,5 C -4,7 C 0,0 km/h (0 Bft)
22.03.2020 00:45 -2,8 C 6,8 C -3,5 C -3,5 C -5,0 C 0,0 C 80 % 84 % 1033,4 hPa 0,0 l/m 0,0 km/h (0 Bft) O-NO 67 0 min -5,8 C -5,0 C 0,0 km/h (0 Bft)
22.03.2020 00:50 -2,9 C 6,8 C -3,6 C -3,6 C -5,0 C 0,0 C 80 % 84 % 1033,4 hPa 0,0 l/m 0,0 km/h (0 Bft) N-NO 22 0 min -5,9 C -5,0 C 0,0 km/h (0 Bft)
22.03.2020 00:55 -2,9 C 6,8 C -3,7 C -3,6 C -5,0 C 0,0 C 81 % 84 % 1033,4 hPa 0,0 l/m 0,0 km/h (0 Bft) NO 45 0 min -5,7 C -5,0 C 0,0 km/h (0 Bft)
22.03.2020 01:00 -3,0 C 6,8 C -3,7 C -3,7 C -5,0 C 0,0 C 81 % 84 % 1033,4 hPa 0,0 l/m 0,0 km/h (0 Bft) NO 45 0 min -5,8 C -5,0 C 0,0 km/h (0 Bft)
22.03.2020 01:05 -2,9 C 6,8 C -3,7 C -3,6 C -5,0 C 0,0 C 81 % 85 % 1033,4 hPa 0,0 l/m 0,0 km/h (0 Bft) O-NO 67 0 min -5,7 C -5,0 C 0,0 km/h (0 Bft)
22.03.2020 01:10 -2,9 C 6,7 C -3,7 C -3,6 C -4,9 C 0,0 C 81 % 85 % 1033,4 hPa 0,0 l/m 0,0 km/h (0 Bft) NO 45 0 min -5,7 C -4,9 C 0,0 km/h (0 Bft)
22.03.2020 01:15 -2,9 C 6,7 C -3,8 C -3,5 C -4,8 C 0,0 C 82 % 85 % 1033,4 hPa 0,0 l/m 0,0 km/h (0 Bft) N-NW 337 0 min -5,5 C -4,8 C 0,0 km/h (0 Bft)
22.03.2020 01:20 -3,1 C 6,7 C -3,8 C -3,7 C -4,9 C 0,0 C 82 % 85 % 1033,4 hPa 0,0 l/m 0,0 km/h (0 Bft) NO 45 0 min -5,7 C -4,9 C 0,0 km/h (0 Bft)
22.03.2020 01:25 -3,1 C 6,7 C -3,8 C -3,7 C -5,0 C 0,0 C 82 % 85 % 1033,4 hPa 0,0 l/m 0,0 km/h (0 Bft) N-NO 22 0 min -5,7 C -5,0 C 0,0 km/h (0 Bft)
22.03.2020 01:30 -3,1 C 6,7 C -3,7 C -3,7 C -4,9 C 0,0 C 82 % 85 % 1033,4 hPa 0,0 l/m 0,0 km/h (0 Bft) N-NO 22 0 min -5,7 C -4,9 C 0,0 km/h (0 Bft)
22.03.2020 01:35 -2,9 C 6,7 C -3,5 C -3,5 C -4,7 C 0,0 C 82 % 85 % 1033,4 hPa 0,0 l/m 0,6 km/h (0 Bft) NO 45 0 min -5,5 C -4,7 C 2,1 km/h (1 Bft)
22.03.2020 01:40 -2,9 C 6,7 C -3,4 C -3,5 C -4,6 C 0,0 C 82 % 85 % 1034,0 hPa 0,0 l/m 0,6 km/h (0 Bft) O-NO 67 0 min -5,5 C -4,6 C 0,0 km/h (0 Bft)
22.03.2020 01:45 -2,9 C 6,6 C -3,3 C -3,4 C -4,5 C 0,0 C 82 % 85 % 1034,0 hPa 0,0 l/m 0,8 km/h (0 Bft) NO 45 0 min -5,5 C -4,5 C 1,6 km/h (1 Bft)
22.03.2020 01:50 -2,9 C 6,6 C -3,3 C -3,4 C -4,4 C 0,0 C 82 % 84 % 1034,0 hPa 0,0 l/m 0,6 km/h (0 Bft) NO 45 0 min -5,5 C -4,4 C 0,0 km/h (0 Bft)
22.03.2020 01:55 -2,9 C 6,6 C -3,3 C -3,5 C -4,6 C 0,0 C 82 % 84 % 1034,0 hPa 0,0 l/m 0,2 km/h (0 Bft) NO 45 0 min -5,5 C -4,6 C 0,0 km/h (0 Bft)
22.03.2020 02:00 -2,9 C 6,6 C -3,3 C -3,4 C -4,5 C 0,0 C 82 % 84 % 1033,6 hPa 0,0 l/m 0,0 km/h (0 Bft) O-NO 67 0 min -5,5 C -4,5 C 0,0 km/h (0 Bft)
22.03.2020 02:05 -2,9 C 6,6 C -3,4 C -3,5 C -4,6 C 0,0 C 82 % 84 % 1033,6 hPa 0,0 l/m 0,2 km/h (0 Bft) N-NW 337 0 min -5,5 C -4,6 C 0,0 km/h (0 Bft)
22.03.2020 02:11 -2,9 C 6,6 C -3,4 C -3,5 C -4,6 C 0,0 C 82 % 84 % 1033,6 hPa 0,0 l/m 0,3 km/h (0 Bft) N 0 0 min -5,5 C -4,6 C 2,3 km/h (1 Bft)
22.03.2020 02:26 -2,9 C 6,5 C -3,3 C -3,5 C -4,6 C 0,0 C 82 % 84 % 1033,6 hPa 0,0 l/m 1,1 km/h (1 Bft) NO 45 0 min -5,5 C -4,6 C 2,1 km/h (1 Bft)
22.03.2020 02:40 -2,9 C 6,5 C -3,4 C -3,5 C -4,6 C 0,0 C 82 % 84 % 1033,6 hPa 0,0 l/m 1,4 km/h (1 Bft) NO 45 0 min -5,5 C -4,6 C 0,0 km/h (0 Bft)
22.03.2020 02:45 -2,9 C 6,5 C -3,4 C -3,5 C -4,7 C 0,0 C 82 % 84 % 1033,6 hPa 0,0 l/m 0,6 km/h (0 Bft) NO 45 0 min -5,5 C -4,7 C 0,0 km/h (0 Bft)
22.03.2020 02:50 -2,9 C 6,5 C -3,5 C -3,5 C -4,7 C 0,0 C 82 % 84 % 1033,6 hPa 0,0 l/m 0,0 km/h (0 Bft) NO 45 0 min -5,5 C -4,7 C 0,0 km/h (0 Bft)
22.03.2020 02:55 -3,1 C 6,5 C -3,7 C -3,7 C -4,8 C 0,0 C 82 % 84 % 1033,6 hPa 0,0 l/m 0,0 km/h (0 Bft) O-NO 67 0 min -5,7 C -4,8 C 0,0 km/h (0 Bft)
22.03.2020 03:00 -3,2 C 6,4 C -3,7 C -3,8 C -4,9 C 0,0 C 82 % 84 % 1033,6 hPa 0,0 l/m 0,0 km/h (0 Bft) NO 45 0 min -5,8 C -4,9 C 0,0 km/h (0 Bft)
22.03.2020 03:05 -3,3 C 6,4 C -3,8 C -3,9 C -5,0 C 0,0 C 82 % 84 % 1033,6 hPa 0,0 l/m 0,0 km/h (0 Bft) N-NO 22 0 min -5,9 C -5,0 C 0,0 km/h (0 Bft)
22.03.2020 03:10 -3,3 C 6,4 C -3,8 C -3,9 C -5,0 C 0,0 C 82 % 84 % 1033,6 hPa 0,0 l/m 0,0 km/h (0 Bft) N-NO 22 0 min -5,9 C -5,0 C 0,0 km/h (0 Bft)
22.03.2020 03:15 -3,3 C 6,4 C -3,9 C -4,0 C -5,3 C 0,0 C 82 % 84 % 1033,6 hPa 0,0 l/m 0,0 km/h (0 Bft) N 360 0 min -5,9 C -5,3 C 0,0 km/h (0 Bft)
22.03.2020 03:20 -3,5 C 6,4 C -3,9 C -4,1 C -5,4 C 0,0 C 82 % 84 % 1033,6 hPa 0,0 l/m 0,0 km/h (0 Bft) NO 45 0 min -6,1 C -5,4 C 1,8 km/h (1 Bft)
22.03.2020 03:25 -3,5 C 6,4 C -3,7 C -4,1 C -5,3 C 0,0 C 82 % 84 % 1033,6 hPa 0,0 l/m 0,2 km/h (0 Bft) O-NO 67 0 min -6,1 C -5,3 C 0,0 km/h (0 Bft)
22.03.2020 03:30 -3,3 C 6,4 C -3,7 C -3,9 C -5,1 C 0,0 C 82 % 84 % 1033,6 hPa 0,0 l/m 0,2 km/h (0 Bft) N-NO 22 0 min -5,9 C -5,1 C 0,0 km/h (0 Bft)
22.03.2020 03:35 -3,5 C 6,4 C -3,8 C -4,1 C -5,3 C 0,0 C 82 % 84 % 1033,6 hPa 0,0 l/m 0,0 km/h (0 Bft) NO 45 0 min -6,1 C -5,3 C 0,0 km/h (0 Bft)
22.03.2020 03:40 -3,5 C 6,4 C -3,9 C -4,1 C -5,4 C 0,0 C 82 % 84 % 1034,1 hPa 0,0 l/m 0,0 km/h (0 Bft) NO 45 0 min -6,1 C -5,4 C 0,0 km/h (0 Bft)
22.03.2020 03:45 -3,5 C 6,4 C -4,0 C -4,2 C -5,5 C 0,0 C 82 % 84 % 1034,1 hPa 0,0 l/m 0,0 km/h (0 Bft) N-NO 22 0 min -6,1 C -5,5 C 0,0 km/h (0 Bft)
22.03.2020 03:50 -3,7 C 6,4 C -4,0 C -4,3 C -5,6 C 0,0 C 82 % 84 % 1034,1 hPa 0,0 l/m 0,0 km/h (0 Bft) O-NO 67 0 min -6,3 C -5,6 C 0,0 km/h (0 Bft)
22.03.2020 03:55 -3,7 C 6,4 C -4,1 C -4,4 C -5,8 C 0,0 C 82 % 84 % 1034,1 hPa 0,0 l/m 0,0 km/h (0 Bft) O-NO 67 0 min -6,3 C -5,8 C 0,0 km/h (0 Bft)
22.03.2020 04:00 -3,9 C 6,4 C -4,1 C -4,6 C -5,9 C 0,0 C 82 % 84 % 1034,4 hPa 0,0 l/m 0,0 km/h (0 Bft) O-NO 67 0 min -6,5 C -5,9 C 0,0 km/h (0 Bft)
22.03.2020 04:05 -4,0 C 6,4 C -4,2 C -4,7 C -6,1 C 0,0 C 82 % 84 % 1034,4 hPa 0,0 l/m 0,0 km/h (0 Bft) NO 45 0 min -6,6 C -6,1 C 0,0 km/h (0 Bft)
22.03.2020 04:11 -4,0 C 6,4 C -4,2 C -4,7 C -6,1 C 0,0 C 82 % 84 % 1034,4 hPa 0,0 l/m 0,0 km/h (0 Bft) N 0 0 min -6,6 C -6,1 C 0,0 km/h (0 Bft)
22.03.2020 04:25 -4,1 C 6,4 C -4,5 C -4,8 C -6,2 C 0,0 C 82 % 84 % 1034,6 hPa 0,0 l/m 0,0 km/h (0 Bft) O-NO 67 0 min -6,7 C -6,2 C 0,0 km/h (0 Bft)
22.03.2020 04:40 -4,3 C 6,1 C -4,5 C -4,9 C -6,2 C 0,0 C 82 % 84 % 1034,6 hPa 0,0 l/m 0,0 km/h (0 Bft) O-NO 67 0 min -6,9 C -6,2 C 0,0 km/h (0 Bft)
22.03.2020 04:45 -4,3 C 6,1 C -4,5 C -4,9 C -6,2 C 0,0 C 82 % 84 % 1034,6 hPa 0,0 l/m 0,0 km/h (0 Bft) N-NW 337 0 min -6,9 C -6,2 C 0,0 km/h (0 Bft)
22.03.2020 04:50 -4,1 C 6,1 C -4,5 C -4,8 C -6,1 C 0,0 C 82 % 84 % 1034,6 hPa 0,0 l/m 0,0 km/h (0 Bft) NO 45 0 min -6,7 C -6,1 C 0,0 km/h (0 Bft)
22.03.2020 04:55 -4,2 C 6,1 C -4,4 C -4,8 C -6,0 C 0,0 C 82 % 84 % 1034,6 hPa 0,0 l/m 0,0 km/h (0 Bft) NO 45 0 min -6,8 C -6,0 C 0,0 km/h (0 Bft)
22.03.2020 05:00 -4,1 C 6,0 C -4,3 C -4,7 C -5,9 C 0,0 C 83 % 84 % 1034,6 hPa 0,0 l/m 0,0 km/h (0 Bft) NO 45 0 min -6,5 C -5,9 C 0,0 km/h (0 Bft)
22.03.2020 05:05 -4,1 C 6,0 C -4,2 C -4,6 C -5,7 C 0,0 C 83 % 84 % 1034,6 hPa 0,0 l/m 0,0 km/h (0 Bft) NO 45 0 min -6,5 C -5,7 C 0,0 km/h (0 Bft)
22.03.2020 05:10 -4,1 C 6,0 C -4,3 C -4,6 C -5,7 C 0,0 C 83 % 84 % 1034,6 hPa 0,0 l/m 0,2 km/h (0 Bft) N-NO 22 0 min -6,5 C -5,7 C 0,0 km/h (0 Bft)
22.03.2020 05:15 -4,1 C 6,0 C -4,4 C -4,6 C -5,7 C 0,0 C 83 % 84 % 1034,6 hPa 0,0 l/m 0,0 km/h (0 Bft) NO 45 0 min -6,5 C -5,7 C 0,0 km/h (0 Bft)
22.03.2020 05:20 -4,1 C 6,0 C -4,4 C -4,6 C -5,7 C 0,0 C 83 % 84 % 1034,4 hPa 0,0 l/m 0,0 km/h (0 Bft) NO 45 0 min -6,5 C -5,7 C 0,0 km/h (0 Bft)
22.03.2020 05:25 -4,1 C 6,0 C -4,4 C -4,6 C -5,7 C 0,0 C 83 % 84 % 1034,4 hPa 0,0 l/m 0,0 km/h (0 Bft) N-NO 22 0 min -6,5 C -5,7 C 0,0 km/h (0 Bft)
22.03.2020 05:30 -4,1 C 6,0 C -4,5 C -4,7 C -5,8 C 0,0 C 83 % 84 % 1034,4 hPa 0,0 l/m 0,0 km/h (0 Bft) N-NW 337 0 min -6,5 C -5,8 C 0,0 km/h (0 Bft)
22.03.2020 05:35 -4,1 C 6,0 C -4,5 C -4,7 C -5,9 C 0,0 C 83 % 84 % 1034,4 hPa 0,0 l/m 0,0 km/h (0 Bft) NO 45 0 min -6,5 C -5,9 C 0,0 km/h (0 Bft)
22.03.2020 05:40 -4,1 C 6,0 C -4,5 C -4,7 C -6,0 C 0,0 C 83 % 84 % 1034,5 hPa 0,0 l/m 0,0 km/h (0 Bft) NO 45 0 min -6,5 C -6,0 C 0,0 km/h (0 Bft)
22.03.2020 05:45 -4,2 C 5,9 C -4,5 C -4,8 C -6,0 C 0,0 C 83 % 84 % 1034,5 hPa 0,0 l/m 0,0 km/h (0 Bft) NO 45 0 min -6,6 C -6,0 C 0,0 km/h (0 Bft)
22.03.2020 05:50 -4,2 C 5,9 C -4,5 C -4,8 C -6,0 C 0,0 C 83 % 85 % 1034,5 hPa 0,0 l/m 0,0 km/h (0 Bft) N-NO 22 0 min -6,6 C -6,0 C 0,0 km/h (0 Bft)
22.03.2020 05:55 -4,1 C 5,9 C -4,5 C -4,8 C -6,1 C 0,0 C 83 % 85 % 1034,5 hPa 0,0 l/m 0,0 km/h (0 Bft) N 360 0 min -6,5 C -6,1 C 0,0 km/h (0 Bft)
22.03.2020 06:00 -4,1 C 5,9 C -4,5 C -4,8 C -6,1 C 0,0 C 83 % 85 % 1035,0 hPa 0,0 l/m 0,0 km/h (0 Bft) N 360 0 min -6,5 C -6,1 C 0,0 km/h (0 Bft)
22.03.2020 06:05 -4,3 C 5,9 C -4,5 C -4,9 C -6,1 C 0,0 C 83 % 85 % 1035,0 hPa 0,0 l/m 0,0 km/h (0 Bft) N 360 0 min -6,7 C -6,1 C 0,0 km/h (0 Bft)
22.03.2020 06:11 -4,3 C 5,9 C -4,6 C -4,9 C -6,1 C 0,0 C 83 % 85 % 1035,0 hPa 0,0 l/m 0,0 km/h (0 Bft) N 0 0 min -6,7 C -6,1 C 0,0 km/h (0 Bft)
22.03.2020 06:25 -4,1 C 5,8 C -4,4 C -4,7 C -5,8 C 0,0 C 83 % 85 % 1034,9 hPa 0,0 l/m 0,0 km/h (0 Bft) N-NO 22 0 min -6,5 C -5,8 C 0,0 km/h (0 Bft)
22.03.2020 06:40 -4,1 C 5,8 C -4,1 C -4,2 C -4,3 C 0,0 C 83 % 85 % 1035,4 hPa 0,0 l/m 0,0 km/h (0 Bft) NW 315 0 min -6,5 C -4,3 C 0,0 km/h (0 Bft)
22.03.2020 06:45 -3,9 C 5,8 C -3,7 C -2,4 C -2,4 C 1,5 C 84 % 85 % 1035,4 hPa 0,0 l/m 0,0 km/h (0 Bft) N-NO 22 5 min -6,2 C -2,4 C 0,0 km/h (0 Bft)
22.03.2020 06:50 -3,9 C 5,8 C -3,5 C -1,3 C -1,3 C 2,6 C 84 % 85 % 1035,4 hPa 0,0 l/m 0,0 km/h (0 Bft) NO 45 5 min -6,2 C -1,3 C 0,0 km/h (0 Bft)
22.03.2020 06:55 -3,5 C 5,8 C -3,3 C 0,3 C 0,3 C 3,8 C 84 % 84 % 1035,4 hPa 0,0 l/m 0,0 km/h (0 Bft) N-NW 337 5 min -5,8 C 0,3 C 0,0 km/h (0 Bft)
22.03.2020 07:00 -3,3 C 5,8 C -3,1 C 1,0 C 1,0 C 4,3 C 84 % 84 % 1035,1 hPa 0,0 l/m 0,0 km/h (0 Bft) N-NO 22 5 min -5,6 C 1,0 C 0,0 km/h (0 Bft)
22.03.2020 07:05 -2,9 C 5,8 C -2,8 C 2,2 C 2,2 C 5,1 C 84 % 84 % 1035,1 hPa 0,0 l/m 0,0 km/h (0 Bft) NW 315 5 min -5,2 C 2,2 C 0,0 km/h (0 Bft)
22.03.2020 07:10 -2,8 C 5,8 C -2,7 C 2,9 C 2,9 C 5,7 C 84 % 84 % 1035,1 hPa 0,0 l/m 0,0 km/h (0 Bft) O-NO 67 5 min -5,1 C 2,9 C 0,0 km/h (0 Bft)
22.03.2020 07:15 -2,3 C 5,7 C -2,6 C 3,7 C 3,7 C 6,0 C 85 % 83 % 1035,1 hPa 0,0 l/m 0,3 km/h (0 Bft) N-NO 22 5 min -4,5 C 3,7 C 3,2 km/h (1 Bft)
22.03.2020 07:20 -2,0 C 5,7 C -2,5 C 3,5 C 3,5 C 5,5 C 85 % 83 % 1035,1 hPa 0,0 l/m 1,3 km/h (1 Bft) O-NO 67 5 min -4,2 C 3,5 C 5,1 km/h (1 Bft)
22.03.2020 07:25 -1,9 C 5,7 C -2,4 C 2,6 C 2,6 C 4,5 C 84 % 82 % 1035,1 hPa 0,0 l/m 3,4 km/h (1 Bft) NO 45 5 min -4,2 C 2,6 C 5,5 km/h (1 Bft)
22.03.2020 07:30 -1,9 C 5,7 C -2,3 C 1,8 C 1,8 C 3,7 C 83 % 83 % 1035,1 hPa 0,0 l/m 3,7 km/h (1 Bft) NO 45 5 min -4,4 C 1,8 C 2,7 km/h (1 Bft)
22.03.2020 07:35 -1,9 C 5,7 C -2,2 C 0,3 C 0,3 C 2,2 C 83 % 83 % 1035,1 hPa 0,0 l/m 3,7 km/h (1 Bft) NO 45 0 min -4,4 C 0,3 C 7,6 km/h (2 Bft)
22.03.2020 07:40 -2,0 C 5,7 C -2,1 C -0,5 C -0,5 C 1,5 C 82 % 82 % 1035,1 hPa 0,0 l/m 3,5 km/h (1 Bft) O-NO 67 0 min -4,7 C -0,5 C 2,7 km/h (1 Bft)
22.03.2020 07:45 -1,7 C 5,7 C -1,9 C 1,3 C 1,3 C 3,0 C 82 % 82 % 1035,1 hPa 0,0 l/m 3,4 km/h (1 Bft) NO 45 5 min -4,4 C 1,3 C 5,3 km/h (1 Bft)
22.03.2020 07:50 -1,7 C 5,7 C -1,9 C 2,3 C 2,3 C 4,0 C 82 % 82 % 1035,1 hPa 0,0 l/m 3,4 km/h (1 Bft) O-NO 67 5 min -4,4 C 2,3 C 5,0 km/h (1 Bft)
22.03.2020 07:55 -1,7 C 5,6 C -2,0 C 1,9 C 1,9 C 3,6 C 82 % 82 % 1035,1 hPa 0,0 l/m 4,7 km/h (1 Bft) NO 45 5 min -4,4 C 0,7 C 11,9 km/h (2 Bft)
22.03.2020 08:00 -1,6 C 5,6 C -1,9 C 1,1 C 1,1 C 2,7 C 81 % 82 % 1035,8 hPa 0,0 l/m 5,3 km/h (1 Bft) O-NO 67 0 min -4,4 C -0,5 C 5,1 km/h (1 Bft)
22.03.2020 08:05 -1,5 C 5,6 C -1,9 C 1,7 C 1,7 C 3,2 C 81 % 82 % 1035,8 hPa 0,0 l/m 5,0 km/h (1 Bft) NO 45 5 min -4,3 C 0,3 C 7,6 km/h (2 Bft)
22.03.2020 08:11 -1,3 C 5,6 C -1,7 C 1,8 C 1,8 C 3,1 C 81 % 82 % 1035,8 hPa 0,0 l/m 4,7 km/h (1 Bft) N 0 0 min -4,1 C 0,6 C 6,6 km/h (2 Bft)
22.03.2020 08:25 -1,1 C 5,7 C -1,0 C 2,0 C 2,0 C 3,1 C 81 % 81 % 1036,2 hPa 0,0 l/m 5,3 km/h (1 Bft) O-NO 67 0 min -3,9 C 0,6 C 6,4 km/h (2 Bft)
22.03.2020 08:40 -0,8 C 5,5 C -0,2 C 3,8 C 3,8 C 4,6 C 80 % 79 % 1036,2 hPa 0,0 l/m 6,0 km/h (2 Bft) O-NO 67 15 min -3,8 C 2,3 C 9,7 km/h (2 Bft)
22.03.2020 08:45 -0,8 C 5,5 C -0,1 C 4,1 C 4,1 C 4,9 C 80 % 79 % 1036,2 hPa 0,0 l/m 5,8 km/h (2 Bft) NO 45 5 min -3,8 C 2,8 C 4,3 km/h (1 Bft)
22.03.2020 08:50 -0,5 C 5,6 C 0,0 C 3,7 C 3,7 C 4,2 C 80 % 79 % 1036,2 hPa 0,0 l/m 6,0 km/h (2 Bft) NO 45 5 min -3,5 C 2,2 C 6,1 km/h (2 Bft)
22.03.2020 08:55 -0,3 C 5,6 C 0,4 C 1,7 C 1,7 C 2,0 C 79 % 78 % 1036,2 hPa 0,0 l/m 6,1 km/h (2 Bft) O-NO 67 0 min -3,5 C -0,1 C 7,6 km/h (2 Bft)
22.03.2020 09:00 -0,1 C 5,6 C 0,7 C 1,8 C 1,8 C 1,9 C 79 % 78 % 1036,2 hPa 0,0 l/m 6,4 km/h (2 Bft) NO 45 0 min -3,3 C -0,1 C 8,9 km/h (2 Bft)
22.03.2020 09:05 -0,1 C 5,6 C 0,4 C 1,2 C 1,2 C 1,3 C 79 % 76 % 1036,2 hPa 0,0 l/m 6,0 km/h (2 Bft) N-NO 22 0 min -3,3 C -0,6 C 8,9 km/h (2 Bft)
22.03.2020 09:10 -0,1 C 5,5 C 0,5 C 1,7 C 1,7 C 1,8 C 78 % 76 % 1036,2 hPa 0,0 l/m 6,0 km/h (2 Bft) NO 45 0 min -3,5 C -0,1 C 6,0 km/h (2 Bft)
22.03.2020 09:15 -0,1 C 5,5 C 0,7 C 1,8 C 1,8 C 1,9 C 78 % 75 % 1036,2 hPa 0,0 l/m 6,3 km/h (2 Bft) O-NO 67 0 min -3,5 C -0,1 C 8,9 km/h (2 Bft)
22.03.2020 09:20 -0,3 C 5,5 C 0,7 C 0,8 C 0,8 C 1,1 C 77 % 75 % 1036,2 hPa 0,0 l/m 6,8 km/h (2 Bft) O-NO 67 0 min -3,8 C -1,4 C 10,9 km/h (2 Bft)
22.03.2020 09:25 -0,4 C 5,6 C 0,5 C 0,4 C -1,1 C 0,8 C 77 % 75 % 1036,2 hPa 0,0 l/m 8,2 km/h (2 Bft) NO 45 0 min -3,9 C -4,1 C 12,7 km/h (3 Bft)
22.03.2020 09:30 -0,5 C 5,5 C 0,7 C -0,5 C -1,7 C 0,0 C 77 % 75 % 1036,2 hPa 0,0 l/m 9,0 km/h (2 Bft) O-NO 67 0 min -4,0 C -5,1 C 7,1 km/h (2 Bft)
22.03.2020 09:35 -0,1 C 5,5 C 2,2 C -0,1 C -0,6 C 0,0 C 77 % 72 % 1036,2 hPa 0,0 l/m 8,5 km/h (2 Bft) O-NO 67 0 min -3,6 C -3,6 C 16,6 km/h (3 Bft)
22.03.2020 09:40 0,1 C 5,5 C 2,8 C 0,6 C 0,1 C 0,5 C 76 % 69 % 1036,2 hPa 0,0 l/m 8,0 km/h (2 Bft) O-NO 67 0 min -3,6 C -2,6 C 9,5 km/h (2 Bft)
22.03.2020 09:45 0,3 C 5,5 C 3,7 C 1,6 C 1,3 C 1,3 C 76 % 67 % 1036,2 hPa 0,0 l/m 8,2 km/h (2 Bft) NO 45 0 min -3,4 C -1,3 C 5,5 km/h (1 Bft)
22.03.2020 09:50 0,3 C 5,5 C 3,2 C 2,4 C 1,9 C 2,1 C 75 % 66 % 1036,2 hPa 0,0 l/m 7,7 km/h (2 Bft) NO 45 0 min -3,6 C -0,4 C 12,1 km/h (2 Bft)
22.03.2020 09:55 0,5 C 5,5 C 3,1 C 1,2 C 1,2 C 0,7 C 75 % 66 % 1036,2 hPa 0,0 l/m 7,4 km/h (2 Bft) NO 45 0 min -3,4 C -1,1 C 7,9 km/h (2 Bft)
22.03.2020 10:00 0,3 C 5,5 C 2,5 C 0,5 C 0,5 C 0,2 C 74 % 66 % 1036,2 hPa 0,0 l/m 7,4 km/h (2 Bft) N-NO 22 0 min -3,8 C -2,0 C 5,1 km/h (1 Bft)
22.03.2020 10:05 0,7 C 5,5 C 2,8 C 1,7 C 1,7 C 1,0 C 74 % 67 % 1036,2 hPa 0,0 l/m 6,8 km/h (2 Bft) O 90 0 min -3,4 C -0,4 C 5,3 km/h (1 Bft)
22.03.2020 10:11 0,8 C 5,5 C 2,5 C 1,6 C 1,6 C 0,8 C 74 % 66 % 1036,2 hPa 0,0 l/m 6,4 km/h (2 Bft) N 0 0 min -3,3 C -0,3 C 6,8 km/h (2 Bft)
22.03.2020 10:25 0,6 C 5,5 C 1,7 C 0,5 C 0,2 C 0,0 C 71 % 68 % 1036,2 hPa 0,0 l/m 6,9 km/h (2 Bft) O-NO 67 0 min -4,0 C -2,1 C 7,4 km/h (2 Bft)
22.03.2020 10:40 1,5 C 5,5 C 2,1 C 2,0 C 1,9 C 0,5 C 69 % 64 % 1036,2 hPa 0,0 l/m 8,0 km/h (2 Bft) O-NO 67 0 min -3,6 C -0,5 C 16,3 km/h (3 Bft)
22.03.2020 10:45 1,5 C 5,5 C 2,4 C 3,1 C 2,7 C 1,6 C 68 % 64 % 1036,2 hPa 0,0 l/m 7,7 km/h (2 Bft) NO 45 0 min -3,7 C 0,5 C 7,9 km/h (2 Bft)
22.03.2020 10:50 1,6 C 5,4 C 2,6 C 3,1 C 2,2 C 1,5 C 66 % 62 % 1036,2 hPa 0,0 l/m 8,9 km/h (2 Bft) O-NO 67 0 min -4,1 C -0,4 C 9,7 km/h (2 Bft)
22.03.2020 10:55 1,9 C 5,4 C 2,9 C 3,4 C 3,1 C 1,5 C 66 % 63 % 1036,2 hPa 0,0 l/m 7,7 km/h (2 Bft) O-NO 67 0 min -3,8 C 1,0 C 8,2 km/h (2 Bft)
22.03.2020 11:00 2,0 C 5,4 C 2,7 C 4,0 C 4,0 C 2,0 C 66 % 61 % 1036,7 hPa 0,0 l/m 6,0 km/h (2 Bft) NO 45 0 min -3,7 C 2,6 C 7,1 km/h (2 Bft)
22.03.2020 11:05 2,1 C 5,4 C 2,4 C 3,9 C 3,9 C 1,8 C 65 % 59 % 1036,7 hPa 0,0 l/m 4,8 km/h (1 Bft) O-NO 67 0 min -3,8 C 2,9 C 9,0 km/h (2 Bft)
22.03.2020 11:10 2,3 C 5,4 C 2,7 C 4,2 C 4,2 C 1,9 C 63 % 59 % 1036,7 hPa 0,0 l/m 5,5 km/h (1 Bft) O-NO 67 0 min -4,0 C 3,0 C 4,5 km/h (1 Bft)
22.03.2020 11:15 2,3 C 5,4 C 3,1 C 3,5 C 3,5 C 1,2 C 62 % 56 % 1036,7 hPa 0,0 l/m 7,1 km/h (2 Bft) O-NO 67 0 min -4,2 C 1,6 C 10,8 km/h (2 Bft)
22.03.2020 11:20 2,1 C 5,4 C 3,0 C 2,6 C 2,6 C 0,5 C 61 % 57 % 1036,7 hPa 0,0 l/m 6,9 km/h (2 Bft) NO 45 0 min -4,6 C 0,7 C 5,5 km/h (1 Bft)
22.03.2020 11:25 1,9 C 5,5 C 3,3 C 2,0 C 2,0 C 0,1 C 61 % 56 % 1036,7 hPa 0,0 l/m 7,4 km/h (2 Bft) O-NO 67 0 min -4,8 C -0,2 C 8,2 km/h (2 Bft)
22.03.2020 11:30 2,1 C 5,6 C 2,9 C 2,2 C 2,2 C 0,1 C 61 % 57 % 1036,7 hPa 0,0 l/m 7,1 km/h (2 Bft) O-NO 67 0 min -4,6 C 0,1 C 6,9 km/h (2 Bft)
22.03.2020 11:35 1,9 C 5,6 C 3,4 C 1,7 C 1,4 C 0,0 C 61 % 57 % 1036,7 hPa 0,0 l/m 7,2 km/h (2 Bft) NO 45 0 min -4,8 C -0,8 C 8,0 km/h (2 Bft)
22.03.2020 11:40 2,0 C 5,6 C 4,8 C 1,8 C 1,4 C 0,0 C 61 % 53 % 1036,7 hPa 0,0 l/m 7,2 km/h (2 Bft) NO 45 0 min -4,7 C -0,8 C 8,0 km/h (2 Bft)
22.03.2020 11:45 2,5 C 5,5 C 6,3 C 3,4 C 3,6 C 0,9 C 61 % 49 % 1036,7 hPa 0,0 l/m 7,7 km/h (2 Bft) NO 45 0 min -4,2 C 1,6 C 6,4 km/h (2 Bft)
22.03.2020 11:50 2,7 C 5,5 C 6,2 C 4,9 C 4,7 C 2,2 C 60 % 47 % 1036,7 hPa 0,0 l/m 8,0 km/h (2 Bft) O-NO 67 0 min -4,3 C 2,8 C 19,2 km/h (3 Bft)
22.03.2020 11:55 2,7 C 5,5 C 6,2 C 5,6 C 5,2 C 2,9 C 58 % 47 % 1036,7 hPa 0,0 l/m 9,3 km/h (2 Bft) O-NO 67 0 min -4,7 C 3,1 C 14,0 km/h (3 Bft)
22.03.2020 12:00 2,8 C 5,5 C 7,1 C 5,9 C 5,3 C 3,1 C 58 % 47 % 1036,7 hPa 0,0 l/m 9,8 km/h (2 Bft) O-NO 67 0 min -4,6 C 3,1 C 12,9 km/h (3 Bft)
22.03.2020 12:05 2,8 C 5,5 C 6,9 C 5,3 C 5,3 C 2,5 C 58 % 44 % 1036,7 hPa 0,0 l/m 10,5 km/h (2 Bft) NO 45 0 min -4,6 C 2,9 C 20,0 km/h (4 Bft)
22.03.2020 12:11 2,9 C 5,5 C 6,6 C 6,5 C 6,2 C 3,6 C 57 % 46 % 1036,7 hPa 0,0 l/m 9,3 km/h (2 Bft) N 0 6 min -4,8 C 4,2 C 9,2 km/h (2 Bft)
22.03.2020 12:25 3,3 C 5,5 C 5,3 C 7,9 C 7,9 C 4,6 C 57 % 48 % 1036,7 hPa 0,0 l/m 5,3 km/h (1 Bft) O-NO 67 14 min -4,4 C 7,3 C 10,5 km/h (2 Bft)
22.03.2020 12:40 2,9 C 5,5 C 4,0 C 3,9 C 3,9 C 1,0 C 55 % 49 % 1036,7 hPa 0,0 l/m 6,9 km/h (2 Bft) N-NO 22 0 min -5,2 C 2,2 C 9,0 km/h (2 Bft)
22.03.2020 12:45 2,9 C 5,5 C 4,9 C 3,8 C 3,8 C 0,9 C 55 % 50 % 1036,7 hPa 0,0 l/m 7,4 km/h (2 Bft) W-SW 247 0 min -5,2 C 1,9 C 6,9 km/h (2 Bft)
22.03.2020 12:50 3,2 C 5,6 C 5,5 C 5,4 C 5,4 C 2,2 C 56 % 50 % 1036,7 hPa 0,0 l/m 7,6 km/h (2 Bft) NO 45 0 min -4,7 C 3,7 C 8,5 km/h (2 Bft)
22.03.2020 12:55 3,6 C 5,6 C 5,5 C 6,7 C 6,7 C 3,1 C 54 % 47 % 1036,7 hPa 0,0 l/m 8,5 km/h (2 Bft) NO 45 0 min -4,8 C 5,0 C 7,2 km/h (2 Bft)
22.03.2020 13:00 3,6 C 5,6 C 5,7 C 7,5 C 7,1 C 3,9 C 54 % 46 % 1036,7 hPa 0,0 l/m 9,2 km/h (2 Bft) O 90 5 min -4,8 C 5,3 C 13,4 km/h (3 Bft)
22.03.2020 13:05 3,9 C 5,6 C 6,3 C 7,8 C 7,3 C 3,9 C 53 % 44 % 1036,7 hPa 0,0 l/m 9,8 km/h (2 Bft) O-NO 67 5 min -4,8 C 5,4 C 11,1 km/h (2 Bft)
22.03.2020 13:10 3,9 C 5,6 C 5,9 C 7,8 C 7,2 C 3,9 C 52 % 45 % 1036,7 hPa 0,0 l/m 10,3 km/h (2 Bft) O-NO 67 5 min -5,0 C 5,2 C 9,7 km/h (2 Bft)
22.03.2020 13:15 4,0 C 5,6 C 5,8 C 8,3 C 8,3 C 4,3 C 53 % 45 % 1036,7 hPa 0,0 l/m 8,7 km/h (2 Bft) O-NO 67 5 min -4,7 C 6,9 C 7,2 km/h (2 Bft)
22.03.2020 13:20 4,1 C 5,6 C 6,4 C 9,1 C 9,1 C 5,0 C 52 % 46 % 1036,7 hPa 0,0 l/m 7,4 km/h (2 Bft) O-NO 67 5 min -4,9 C 8,1 C 11,3 km/h (2 Bft)
22.03.2020 13:25 4,1 C 5,7 C 6,9 C 9,2 C 8,7 C 5,1 C 51 % 42 % 1036,7 hPa 0,0 l/m 7,9 km/h (2 Bft) O-NO 67 5 min -5,1 C 7,5 C 8,9 km/h (2 Bft)
22.03.2020 13:30 4,2 C 5,7 C 7,0 C 8,7 C 8,7 C 4,5 C 50 % 41 % 1036,7 hPa 0,0 l/m 8,9 km/h (2 Bft) S-SW 202 5 min -5,3 C 7,3 C 6,6 km/h (2 Bft)
22.03.2020 13:35 4,3 C 5,7 C 6,2 C 9,3 C 9,1 C 5,0 C 50 % 44 % 1036,7 hPa 0,0 l/m 7,9 km/h (2 Bft) N-NO 22 5 min -5,2 C 8,0 C 7,6 km/h (2 Bft)
22.03.2020 13:40 4,0 C 5,7 C 5,1 C 7,2 C 7,2 C 3,2 C 50 % 46 % 1036,7 hPa 0,0 l/m 6,6 km/h (2 Bft) NW 315 0 min -5,5 C 6,1 C 6,3 km/h (2 Bft)
22.03.2020 13:45 3,7 C 5,7 C 4,7 C 5,6 C 5,6 C 1,9 C 51 % 48 % 1036,7 hPa 0,0 l/m 5,1 km/h (1 Bft) N-NW 337 0 min -5,5 C 4,7 C 4,3 km/h (1 Bft)
22.03.2020 13:50 3,9 C 5,7 C 4,9 C 6,2 C 6,2 C 2,3 C 52 % 49 % 1036,7 hPa 0,0 l/m 5,0 km/h (1 Bft) N-NW 337 0 min -5,0 C 5,4 C 10,1 km/h (2 Bft)
22.03.2020 13:55 3,8 C 5,7 C 5,2 C 6,6 C 6,6 C 2,8 C 51 % 49 % 1036,7 hPa 0,0 l/m 7,1 km/h (2 Bft) O-NO 67 0 min -5,4 C 5,2 C 6,9 km/h (2 Bft)
22.03.2020 14:00 4,2 C 5,7 C 5,5 C 7,6 C 7,4 C 3,4 C 51 % 46 % 1036,7 hPa 0,0 l/m 8,2 km/h (2 Bft) NO 45 5 min -5,0 C 5,9 C 9,7 km/h (2 Bft)
22.03.2020 14:05 4,3 C 5,8 C 5,6 C 8,3 C 8,2 C 4,0 C 50 % 46 % 1036,7 hPa 0,0 l/m 8,0 km/h (2 Bft) O-NO 67 5 min -5,2 C 6,9 C 7,9 km/h (2 Bft)
22.03.2020 14:11 4,2 C 5,8 C 5,0 C 8,6 C 8,1 C 4,4 C 50 % 45 % 1036,7 hPa 0,0 l/m 8,9 km/h (2 Bft) N 0 6 min -5,3 C 6,6 C 11,9 km/h (2 Bft)
22.03.2020 14:25 3,7 C 5,8 C 4,1 C 5,9 C 3,8 C 2,2 C 49 % 47 % 1036,6 hPa 0,0 l/m 8,5 km/h (2 Bft) O-NO 67 0 min -6,0 C 1,6 C 21,9 km/h (4 Bft)
22.03.2020 14:40 3,8 C 5,8 C 4,6 C 5,4 C 5,4 C 1,6 C 49 % 46 % 1036,6 hPa 0,0 l/m 7,7 km/h (2 Bft) O-NO 67 0 min -5,9 C 3,7 C 14,0 km/h (3 Bft)
22.03.2020 14:45 3,7 C 5,8 C 3,9 C 5,5 C 4,7 C 1,8 C 48 % 47 % 1036,6 hPa 0,0 l/m 8,4 km/h (2 Bft) O-NO 67 0 min -6,3 C 2,7 C 10,3 km/h (2 Bft)
22.03.2020 14:50 3,6 C 5,8 C 4,2 C 5,1 C 4,4 C 1,5 C 49 % 48 % 1036,6 hPa 0,0 l/m 8,7 km/h (2 Bft) O-NO 67 0 min -6,1 C 2,2 C 8,7 km/h (2 Bft)
22.03.2020 14:55 3,9 C 5,8 C 4,8 C 6,1 C 6,2 C 2,2 C 49 % 47 % 1036,6 hPa 0,0 l/m 8,4 km/h (2 Bft) O-NO 67 0 min -5,8 C 4,4 C 9,3 km/h (2 Bft)
22.03.2020 15:00 4,0 C 5,9 C 4,7 C 7,0 C 6,6 C 3,0 C 49 % 47 % 1036,4 hPa 0,0 l/m 8,9 km/h (2 Bft) O-NO 67 0 min -5,7 C 4,8 C 12,4 km/h (3 Bft)
22.03.2020 15:05 4,1 C 5,9 C 4,6 C 7,0 C 6,3 C 2,9 C 50 % 49 % 1036,4 hPa 0,0 l/m 9,5 km/h (2 Bft) NO 45 0 min -5,4 C 4,3 C 12,1 km/h (2 Bft)
22.03.2020 15:10 4,0 C 5,9 C 4,4 C 6,8 C 6,2 C 2,8 C 50 % 49 % 1036,4 hPa 0,0 l/m 10,1 km/h (2 Bft) NO 45 0 min -5,5 C 4,1 C 11,3 km/h (2 Bft)
22.03.2020 15:15 3,9 C 5,9 C 4,5 C 6,6 C 5,7 C 2,7 C 50 % 50 % 1036,4 hPa 0,0 l/m 11,4 km/h (2 Bft) NO 45 0 min -5,6 C 3,2 C 6,6 km/h (2 Bft)
22.03.2020 15:20 4,1 C 5,9 C 4,5 C 6,5 C 6,0 C 2,4 C 50 % 48 % 1036,4 hPa 0,0 l/m 10,0 km/h (2 Bft) O-NO 67 0 min -5,4 C 3,9 C 9,5 km/h (2 Bft)
22.03.2020 15:25 4,0 C 5,9 C 4,8 C 7,0 C 6,7 C 3,0 C 50 % 47 % 1036,4 hPa 0,0 l/m 9,2 km/h (2 Bft) O-NO 67 0 min -5,5 C 4,9 C 11,3 km/h (2 Bft)
22.03.2020 15:30 4,0 C 5,9 C 4,8 C 7,1 C 6,5 C 3,1 C 49 % 46 % 1036,4 hPa 0,0 l/m 10,1 km/h (2 Bft) NO 45 0 min -5,7 C 4,4 C 9,2 km/h (2 Bft)
22.03.2020 15:35 4,1 C 5,9 C 4,3 C 6,8 C 6,1 C 2,7 C 49 % 48 % 1036,4 hPa 0,0 l/m 9,7 km/h (2 Bft) O-NO 67 0 min -5,6 C 4,0 C 12,7 km/h (3 Bft)
22.03.2020 15:40 3,6 C 5,9 C 3,7 C 5,5 C 4,2 C 1,9 C 50 % 50 % 1036,4 hPa 0,0 l/m 9,8 km/h (2 Bft) O-NO 67 0 min -5,8 C 1,7 C 9,2 km/h (2 Bft)
22.03.2020 15:45 3,3 C 5,9 C 3,4 C 3,8 C 2,5 C 0,5 C 51 % 51 % 1036,4 hPa 0,0 l/m 8,7 km/h (2 Bft) NO 45 0 min -5,8 C 0,0 C 8,9 km/h (2 Bft)
22.03.2020 15:50 3,5 C 6,0 C 3,7 C 3,9 C 3,9 C 0,4 C 51 % 50 % 1036,4 hPa 0,0 l/m 7,6 km/h (2 Bft) NW 315 0 min -5,7 C 2,0 C 9,5 km/h (2 Bft)
22.03.2020 15:55 3,7 C 6,0 C 4,3 C 5,7 C 5,7 C 2,0 C 50 % 48 % 1036,4 hPa 0,0 l/m 7,4 km/h (2 Bft) O-NO 67 0 min -5,7 C 4,1 C 6,9 km/h (2 Bft)
22.03.2020 16:00 3,8 C 5,9 C 4,5 C 6,4 C 6,0 C 2,6 C 49 % 46 % 1036,4 hPa 0,0 l/m 8,2 km/h (2 Bft) O-NO 67 0 min -5,9 C 4,3 C 14,0 km/h (3 Bft)
22.03.2020 16:05 4,1 C 6,1 C 4,6 C 6,8 C 6,4 C 2,7 C 48 % 46 % 1036,4 hPa 0,0 l/m 8,7 km/h (2 Bft) O-NO 67 0 min -5,9 C 4,6 C 8,4 km/h (2 Bft)
22.03.2020 16:11 4,0 C 6,1 C 4,6 C 6,8 C 6,2 C 2,8 C 48 % 47 % 1036,4 hPa 0,0 l/m 8,5 km/h (2 Bft) N 0 0 min -6,0 C 4,4 C 5,8 km/h (2 Bft)
22.03.2020 16:25 3,4 C 6,1 C 3,5 C 4,3 C 2,2 C 0,9 C 50 % 51 % 1036,4 hPa 0,0 l/m 9,5 km/h (2 Bft) NO 45 0 min -6,0 C -0,6 C 8,0 km/h (2 Bft)
22.03.2020 16:40 3,2 C 6,1 C 3,7 C 3,1 C 2,8 C 0,0 C 52 % 53 % 1036,4 hPa 0,0 l/m 6,0 km/h (2 Bft) NO 45 0 min -5,7 C 1,2 C 11,3 km/h (2 Bft)
22.03.2020 16:45 3,5 C 6,1 C 4,1 C 3,9 C 3,9 C 0,4 C 52 % 50 % 1036,4 hPa 0,0 l/m 7,6 km/h (2 Bft) O-NO 67 0 min -5,4 C 2,0 C 15,6 km/h (3 Bft)
22.03.2020 16:50 3,6 C 6,1 C 4,0 C 4,8 C 4,4 C 1,2 C 51 % 49 % 1036,4 hPa 0,0 l/m 8,5 km/h (2 Bft) O 90 0 min -5,6 C 2,3 C 12,6 km/h (3 Bft)
22.03.2020 16:55 3,2 C 6,1 C 3,1 C 4,1 C 2,6 C 0,9 C 48 % 47 % 1036,4 hPa 0,0 l/m 11,4 km/h (2 Bft) NO 45 0 min -6,7 C -0,5 C 14,3 km/h (3 Bft)
22.03.2020 17:00 3,1 C 6,1 C 2,8 C 2,9 C 1,1 C 0,0 C 48 % 49 % 1036,4 hPa 0,0 l/m 11,9 km/h (2 Bft) O-NO 67 0 min -6,8 C -2,4 C 11,6 km/h (2 Bft)
22.03.2020 17:05 2,8 C 6,1 C 2,7 C 2,4 C 0,6 C 0,0 C 49 % 50 % 1036,4 hPa 0,0 l/m 8,4 km/h (2 Bft) NO 45 0 min -6,8 C -2,2 C 7,9 km/h (2 Bft)
22.03.2020 17:10 2,8 C 6,1 C 3,0 C 2,4 C 1,7 C 0,0 C 50 % 51 % 1036,4 hPa 0,0 l/m 6,6 km/h (2 Bft) O-NO 67 0 min -6,6 C -0,3 C 8,4 km/h (2 Bft)
22.03.2020 17:15 3,0 C 6,1 C 3,4 C 2,9 C 2,7 C 0,0 C 50 % 50 % 1036,4 hPa 0,0 l/m 6,6 km/h (2 Bft) NO 45 0 min -6,4 C 0,9 C 5,0 km/h (1 Bft)
22.03.2020 17:20 3,2 C 6,1 C 3,3 C 3,1 C 2,9 C 0,0 C 50 % 49 % 1036,4 hPa 0,0 l/m 7,1 km/h (2 Bft) O-NO 67 0 min -6,2 C 0,9 C 18,5 km/h (3 Bft)
22.03.2020 17:25 3,1 C 6,1 C 2,9 C 3,1 C 1,9 C 0,0 C 49 % 48 % 1036,4 hPa 0,0 l/m 9,3 km/h (2 Bft) NO 45 0 min -6,6 C -0,9 C 17,9 km/h (3 Bft)
22.03.2020 17:30 2,9 C 6,1 C 2,4 C 2,6 C 0,7 C 0,0 C 48 % 47 % 1036,4 hPa 0,0 l/m 11,3 km/h (2 Bft) O 90 0 min -7,0 C -2,8 C 10,1 km/h (2 Bft)
22.03.2020 17:35 2,5 C 6,1 C 2,2 C 2,0 C -0,3 C 0,0 C 48 % 49 % 1036,4 hPa 0,0 l/m 9,8 km/h (2 Bft) N-NO 22 0 min -7,4 C -3,6 C 6,4 km/h (2 Bft)
22.03.2020 17:40 2,4 C 6,1 C 2,0 C 1,6 C -0,1 C 0,0 C 48 % 50 % 1036,4 hPa 0,0 l/m 7,2 km/h (2 Bft) N-NO 22 0 min -7,5 C -2,6 C 3,2 km/h (1 Bft)
22.03.2020 17:45 2,3 C 6,1 C 1,8 C 1,8 C 0,9 C 0,0 C 49 % 51 % 1036,4 hPa 0,0 l/m 3,7 km/h (1 Bft) O-NO 67 0 min -7,3 C 0,9 C 5,1 km/h (1 Bft)
22.03.2020 17:50 2,1 C 6,1 C 1,9 C 1,8 C 1,3 C 0,0 C 50 % 52 % 1036,4 hPa 0,0 l/m 3,1 km/h (1 Bft) O-NO 67 0 min -7,2 C 1,3 C 3,7 km/h (1 Bft)
22.03.2020 17:55 2,1 C 6,1 C 1,9 C 2,0 C 1,7 C 0,0 C 50 % 52 % 1036,4 hPa 0,0 l/m 3,5 km/h (1 Bft) O-NO 67 0 min -7,2 C 1,7 C 5,0 km/h (1 Bft)
22.03.2020 18:00 2,2 C 6,1 C 1,9 C 2,1 C 1,9 C 0,0 C 50 % 51 % 1036,4 hPa 0,0 l/m 4,2 km/h (1 Bft) O-NO 67 0 min -7,1 C 1,9 C 6,4 km/h (2 Bft)
22.03.2020 18:05 2,3 C 6,1 C 1,9 C 1,9 C 1,1 C 0,0 C 51 % 52 % 1036,4 hPa 0,0 l/m 6,0 km/h (2 Bft) NO 45 0 min -6,8 C -0,8 C 9,7 km/h (2 Bft)
22.03.2020 18:11 2,1 C 6,1 C 1,8 C 1,6 C 0,6 C 0,0 C 50 % 52 % 1036,4 hPa 0,0 l/m 6,3 km/h (2 Bft) N 0 0 min -7,2 C -1,5 C 6,3 km/h (2 Bft)
22.03.2020 18:25 1,9 C 6,1 C 1,2 C 1,1 C -0,6 C 0,0 C 51 % 54 % 1036,4 hPa 0,0 l/m 6,3 km/h (2 Bft) O-NO 67 0 min -7,1 C -2,8 C 6,8 km/h (2 Bft)
22.03.2020 18:40 1,4 C 6,1 C 0,7 C 0,7 C -0,8 C 0,0 C 52 % 56 % 1037,3 hPa 0,0 l/m 4,0 km/h (1 Bft) NO 45 0 min -7,4 C -0,8 C 4,7 km/h (1 Bft)
22.03.2020 18:45 1,3 C 6,1 C 0,5 C 0,5 C -1,0 C 0,0 C 53 % 56 % 1037,3 hPa 0,0 l/m 3,9 km/h (1 Bft) O-NO 67 0 min -7,2 C -1,0 C 2,7 km/h (1 Bft)
22.03.2020 18:50 1,2 C 6,2 C 0,4 C 0,5 C -1,0 C 0,0 C 53 % 57 % 1037,3 hPa 0,0 l/m 3,4 km/h (1 Bft) NO 45 0 min -7,3 C -1,0 C 2,3 km/h (1 Bft)
22.03.2020 18:55 1,1 C 6,2 C 0,3 C 0,3 C -1,2 C 0,0 C 54 % 57 % 1037,3 hPa 0,0 l/m 3,2 km/h (1 Bft) NO 45 0 min -7,1 C -1,2 C 3,4 km/h (1 Bft)
22.03.2020 19:00 0,9 C 6,2 C 0,3 C 0,2 C -1,2 C 0,0 C 54 % 58 % 1037,3 hPa 0,0 l/m 3,1 km/h (1 Bft) O-NO 67 0 min -7,3 C -1,2 C 3,5 km/h (1 Bft)
22.03.2020 19:05 0,8 C 6,2 C 0,1 C 0,1 C -1,2 C 0,0 C 55 % 59 % 1037,3 hPa 0,0 l/m 2,6 km/h (1 Bft) O-NO 67 0 min -7,2 C -1,2 C 2,1 km/h (1 Bft)
22.03.2020 19:10 0,6 C 6,2 C -0,2 C 0,0 C -1,2 C 0,0 C 55 % 61 % 1037,3 hPa 0,0 l/m 2,4 km/h (1 Bft) O-NO 67 0 min -7,4 C -1,2 C 2,4 km/h (1 Bft)
22.03.2020 19:15 0,3 C 6,2 C -0,5 C -0,4 C -1,7 C 0,0 C 56 % 61 % 1037,3 hPa 0,0 l/m 2,6 km/h (1 Bft) O-NO 67 0 min -7,4 C -1,7 C 2,3 km/h (1 Bft)
22.03.2020 19:20 0,1 C 6,2 C -0,6 C -0,5 C -1,7 C 0,0 C 57 % 62 % 1037,3 hPa 0,0 l/m 2,4 km/h (1 Bft) O-NO 67 0 min -7,4 C -1,7 C 2,3 km/h (1 Bft)
22.03.2020 19:25 -0,1 C 6,2 C -1,0 C -0,7 C -1,9 C 0,0 C 58 % 64 % 1037,3 hPa 0,0 l/m 1,8 km/h (1 Bft) O-NO 67 0 min -7,3 C -1,9 C 1,6 km/h (1 Bft)
22.03.2020 19:30 -0,4 C 6,2 C -1,2 C -1,0 C -2,2 C 0,0 C 59 % 66 % 1037,3 hPa 0,0 l/m 1,8 km/h (1 Bft) NO 45 0 min -7,4 C -2,2 C 2,3 km/h (1 Bft)
22.03.2020 19:35 -0,6 C 6,2 C -1,4 C -1,2 C -2,4 C 0,0 C 61 % 68 % 1037,3 hPa 0,0 l/m 2,3 km/h (1 Bft) O-NO 67 0 min -7,2 C -2,4 C 3,1 km/h (1 Bft)
22.03.2020 19:40 -0,6 C 6,2 C -1,4 C -1,3 C -2,7 C 0,0 C 61 % 67 % 1037,9 hPa 0,0 l/m 2,6 km/h (1 Bft) NO 45 0 min -7,2 C -2,7 C 3,1 km/h (1 Bft)
22.03.2020 19:45 -0,5 C 6,2 C -1,6 C -1,1 C -2,3 C 0,0 C 62 % 68 % 1037,9 hPa 0,0 l/m 2,3 km/h (1 Bft) N-NO 22 0 min -6,9 C -2,3 C 0,0 km/h (0 Bft)
22.03.2020 19:50 -0,7 C 6,1 C -1,7 C -1,3 C -2,6 C 0,0 C 62 % 69 % 1037,9 hPa 0,0 l/m 1,3 km/h (1 Bft) O-NO 67 0 min -7,1 C -2,6 C 2,3 km/h (1 Bft)
22.03.2020 19:55 -0,8 C 6,1 C -1,5 C -1,4 C -2,5 C 0,0 C 62 % 67 % 1037,9 hPa 0,0 l/m 1,9 km/h (1 Bft) NO 45 0 min -7,1 C -2,5 C 2,9 km/h (1 Bft)
22.03.2020 20:00 -0,7 C 6,1 C -1,6 C -1,5 C -3,0 C 0,0 C 62 % 68 % 1037,9 hPa 0,0 l/m 2,9 km/h (1 Bft) NO 45 0 min -7,1 C -3,0 C 2,4 km/h (1 Bft)
22.03.2020 20:05 -0,9 C 6,1 C -2,0 C -1,5 C -2,6 C 0,0 C 63 % 69 % 1037,9 hPa 0,0 l/m 1,6 km/h (1 Bft) NO 45 0 min -7,0 C -2,6 C 0,0 km/h (0 Bft)
22.03.2020 20:11 -1,1 C 6,1 C -2,2 C -1,7 C -2,8 C 0,0 C 63 % 70 % 1037,9 hPa 0,0 l/m 0,6 km/h (0 Bft) N 0 0 min -7,2 C -2,8 C 0,0 km/h (0 Bft)
22.03.2020 20:25 -1,5 C 6,1 C -2,6 C -2,2 C -3,7 C 0,0 C 65 % 72 % 1037,9 hPa 0,0 l/m 0,0 km/h (0 Bft) N-NO 22 0 min -7,2 C -3,7 C 0,0 km/h (0 Bft)
22.03.2020 20:40 -1,7 C 6,1 C -2,8 C -2,5 C -4,1 C 0,0 C 67 % 74 % 1037,9 hPa 0,0 l/m 0,0 km/h (0 Bft) NO 45 0 min -7,0 C -4,1 C 0,0 km/h (0 Bft)
22.03.2020 20:45 -1,9 C 6,1 C -2,9 C -2,7 C -4,4 C 0,0 C 68 % 74 % 1037,9 hPa 0,0 l/m 0,0 km/h (0 Bft) NO 45 0 min -7,0 C -4,4 C 0,0 km/h (0 Bft)
22.03.2020 20:50 -2,1 C 6,1 C -2,9 C -2,9 C -4,6 C 0,0 C 68 % 75 % 1037,9 hPa 0,0 l/m 0,0 km/h (0 Bft) NW 315 0 min -7,2 C -4,6 C 0,0 km/h (0 Bft)
22.03.2020 20:55 -2,3 C 6,1 C -2,9 C -3,1 C -4,7 C 0,0 C 68 % 74 % 1037,9 hPa 0,0 l/m 0,0 km/h (0 Bft) N-NW 337 0 min -7,4 C -4,7 C 0,0 km/h (0 Bft)
22.03.2020 21:00 -2,3 C 6,1 C -3,0 C -3,1 C -4,7 C 0,0 C 68 % 74 % 1037,9 hPa 0,0 l/m 0,0 km/h (0 Bft) O-NO 67 0 min -7,4 C -4,7 C 0,0 km/h (0 Bft)
22.03.2020 21:05 -2,4 C 6,0 C -3,2 C -3,1 C -4,6 C 0,0 C 69 % 75 % 1037,9 hPa 0,0 l/m 0,0 km/h (0 Bft) NO 45 0 min -7,3 C -4,6 C 0,0 km/h (0 Bft)
22.03.2020 21:10 -2,4 C 6,0 C -3,3 C -3,1 C -4,4 C 0,0 C 69 % 75 % 1037,9 hPa 0,0 l/m 0,3 km/h (0 Bft) O-NO 67 0 min -7,3 C -4,4 C 2,1 km/h (1 Bft)
22.03.2020 21:15 -2,4 C 6,0 C -3,3 C -3,0 C -4,1 C 0,0 C 70 % 76 % 1037,9 hPa 0,0 l/m 1,4 km/h (1 Bft) NO 45 0 min -7,1 C -4,1 C 1,8 km/h (1 Bft)
22.03.2020 21:20 -2,5 C 6,0 C -3,4 C -3,0 C -4,1 C 0,0 C 70 % 77 % 1037,9 hPa 0,0 l/m 1,9 km/h (1 Bft) NO 45 0 min -7,2 C -4,1 C 1,9 km/h (1 Bft)
22.03.2020 21:25 -2,6 C 6,0 C -3,5 C -3,1 C -4,2 C 0,0 C 71 % 77 % 1037,9 hPa 0,0 l/m 1,4 km/h (1 Bft) O-NO 67 0 min -7,1 C -4,2 C 2,3 km/h (1 Bft)
22.03.2020 21:30 -2,5 C 6,0 C -3,7 C -3,1 C -4,3 C 0,0 C 72 % 77 % 1037,9 hPa 0,0 l/m 1,3 km/h (1 Bft) NO 45 0 min -6,8 C -4,3 C 0,0 km/h (0 Bft)
22.03.2020 21:35 -2,8 C 6,0 C -3,7 C -3,4 C -4,6 C 0,0 C 71 % 77 % 1037,9 hPa 0,0 l/m 0,6 km/h (0 Bft) NO 45 0 min -7,3 C -4,6 C 0,0 km/h (0 Bft)
22.03.2020 21:40 -2,9 C 6,0 C -3,7 C -3,5 C -4,8 C 0,0 C 71 % 77 % 1037,9 hPa 0,0 l/m 0,0 km/h (0 Bft) NO 45 0 min -7,4 C -4,8 C 0,0 km/h (0 Bft)
22.03.2020 21:45 -2,9 C 6,0 C -3,8 C -3,7 C -5,4 C 0,0 C 71 % 77 % 1037,9 hPa 0,0 l/m 0,0 km/h (0 Bft) NW 315 0 min -7,4 C -5,4 C 0,0 km/h (0 Bft)
22.03.2020 21:50 -3,1 C 6,0 C -3,9 C -3,9 C -5,6 C 0,0 C 72 % 77 % 1037,9 hPa 0,0 l/m 0,0 km/h (0 Bft) NW 315 0 min -7,4 C -5,6 C 0,0 km/h (0 Bft)
22.03.2020 21:55 -3,3 C 6,0 C -4,0 C -4,1 C -5,7 C 0,0 C 72 % 78 % 1037,9 hPa 0,0 l/m 0,0 km/h (0 Bft) N-NO 22 0 min -7,6 C -5,7 C 0,0 km/h (0 Bft)
22.03.2020 22:00 -3,3 C 6,0 C -4,0 C -4,1 C -5,8 C 0,0 C 73 % 78 % 1037,9 hPa 0,0 l/m 0,0 km/h (0 Bft) N-NO 22 0 min -7,4 C -5,8 C 0,0 km/h (0 Bft)
22.03.2020 22:05 -3,4 C 5,9 C -4,1 C -4,2 C -5,8 C 0,0 C 73 % 79 % 1037,9 hPa 0,0 l/m 0,0 km/h (0 Bft) N-NO 22 0 min -7,5 C -5,8 C 0,0 km/h (0 Bft)
22.03.2020 22:11 -3,3 C 5,9 C -4,1 C -4,2 C -5,9 C 0,0 C 73 % 79 % 1037,9 hPa 0,0 l/m 0,0 km/h (0 Bft) N 0 0 min -7,4 C -5,9 C 0,0 km/h (0 Bft)
22.03.2020 22:25 -3,6 C 5,9 C -4,3 C -4,3 C -5,8 C 0,0 C 74 % 79 % 1039,1 hPa 0,0 l/m 0,0 km/h (0 Bft) SW 225 0 min -7,5 C -5,8 C 0,0 km/h (0 Bft)
22.03.2020 22:40 -3,7 C 5,9 C -4,4 C -4,6 C -6,4 C 0,0 C 75 % 79 % 1039,1 hPa 0,0 l/m 0,0 km/h (0 Bft) SW 225 0 min -7,5 C -6,4 C 0,0 km/h (0 Bft)
22.03.2020 22:45 -3,9 C 5,9 C -4,4 C -4,8 C -6,6 C 0,0 C 75 % 79 % 1039,1 hPa 0,0 l/m 0,0 km/h (0 Bft) SW 225 0 min -7,7 C -6,6 C 0,0 km/h (0 Bft)
22.03.2020 22:50 -4,0 C 5,9 C -4,5 C -4,9 C -6,7 C 0,0 C 75 % 80 % 1039,1 hPa 0,0 l/m 0,0 km/h (0 Bft) SW 225 0 min -7,8 C -6,7 C 0,0 km/h (0 Bft)
22.03.2020 22:55 -4,1 C 5,8 C -4,5 C -5,0 C -6,7 C 0,0 C 75 % 80 % 1039,1 hPa 0,0 l/m 0,0 km/h (0 Bft) SW 225 0 min -7,9 C -6,7 C 0,0 km/h (0 Bft)
22.03.2020 23:00 -4,1 C 5,8 C -4,5 C -5,0 C -6,7 C 0,0 C 75 % 81 % 1039,4 hPa 0,0 l/m 0,0 km/h (0 Bft) NO 45 0 min -7,9 C -6,7 C 0,0 km/h (0 Bft)
22.03.2020 23:05 -4,1 C 5,8 C -4,6 C -4,9 C -6,5 C 0,0 C 75 % 81 % 1039,4 hPa 0,0 l/m 0,0 km/h (0 Bft) NO 45 0 min -7,9 C -6,5 C 0,0 km/h (0 Bft)
22.03.2020 23:10 -4,1 C 5,8 C -4,5 C -4,8 C -6,2 C 0,0 C 75 % 81 % 1039,4 hPa 0,0 l/m 0,0 km/h (0 Bft) NO 45 0 min -7,9 C -6,2 C 0,0 km/h (0 Bft)
22.03.2020 23:15 -4,3 C 5,8 C -4,6 C -5,0 C -6,3 C 0,0 C 76 % 81 % 1039,4 hPa 0,0 l/m 0,0 km/h (0 Bft) SW 225 0 min -7,9 C -6,3 C 0,0 km/h (0 Bft)
22.03.2020 23:20 -4,3 C 5,8 C -4,6 C -5,0 C -6,4 C 0,0 C 76 % 81 % 1039,4 hPa 0,0 l/m 0,0 km/h (0 Bft) S-SW 202 0 min -7,9 C -6,4 C 0,0 km/h (0 Bft)
22.03.2020 23:25 -4,3 C 5,8 C -4,7 C -5,1 C -6,7 C 0,0 C 77 % 81 % 1039,4 hPa 0,0 l/m 0,0 km/h (0 Bft) S-SW 202 0 min -7,7 C -6,7 C 0,0 km/h (0 Bft)
22.03.2020 23:30 -4,4 C 5,8 C -4,8 C -5,2 C -6,7 C 0,0 C 77 % 81 % 1039,4 hPa 0,0 l/m 0,0 km/h (0 Bft) N-NW 337 0 min -7,8 C -6,7 C 0,0 km/h (0 Bft)
22.03.2020 23:35 -4,5 C 5,8 C -4,9 C -5,3 C -6,9 C 0,0 C 77 % 81 % 1039,4 hPa 0,0 l/m 0,0 km/h (0 Bft) N-NW 337 0 min -7,9 C -6,9 C 0,0 km/h (0 Bft)
22.03.2020 23:40 -4,5 C 5,8 C -4,9 C -5,4 C -7,1 C 0,0 C 77 % 81 % 1039,4 hPa 0,0 l/m 0,0 km/h (0 Bft) N-NW 337 0 min -7,9 C -7,1 C 0,0 km/h (0 Bft)
22.03.2020 23:45 -4,7 C 5,7 C -4,9 C -5,5 C -7,2 C 0,0 C 77 % 81 % 1039,4 hPa 0,0 l/m 0,0 km/h (0 Bft) W-SW 247 0 min -8,1 C -7,2 C 0,0 km/h (0 Bft)
22.03.2020 23:50 -4,7 C 5,7 C -4,9 C -5,6 C -7,3 C 0,0 C 77 % 82 % 1039,4 hPa 0,0 l/m 0,0 km/h (0 Bft) SW 225 0 min -8,1 C -7,3 C 0,0 km/h (0 Bft)
22.03.2020 23:55 -4,8 C 5,7 C -5,0 C -5,6 C -7,3 C 0,0 C 78 % 82 % 1039,4 hPa 0,0 l/m 0,0 km/h (0 Bft) SW 225 0 min -8,0 C -7,3 C 0,0 km/h (0 Bft)
_ Min-Zeit 23:55 10:50 23:55 23:50 23:50 00:00 14:45 13:30 00:00 - 00:00 - - - 23:45 23:50 00:00
Minimum _ -4,8 C 5,4 C -5,0 C -5,6 C -7,3 C 0,0 C 48 % 41 % 1032,9 hPa - 0,0 km/h (0 Bft) - - - -8,1 C -7,3 C 0,0 km/h (0 Bft)
_ Max-Zeit 13:35 00:00 12:00 13:35 13:20 07:15 07:15 01:05 23:00 00:00 17:00 - - 08:40 09:00 13:20 14:25
Maximum _ 4,3 C 6,9 C 7,1 C 9,3 C 9,1 C 6,0 C 85 % 85 % 1039,4 hPa 0,0 l/m 11,9 km/h
O-NO (2 Bft)
- - 15 min -3,3 C 8,1 C 21,9 km/h
O-NO (4 Bft)
Durchschnitt _ -0,6 C 6,0 C -0,5 C 0,0 C -0,8 C 1,0 C 69 % 69 % 1036,1 hPa #0,0 l/m 3,6 km/h (1 Bft) O-NO - #2:51 h -5,9 C -1,7 C 4,6 km/h (1 Bft)
2020 www.wetterstation-wechselburg.de